DW2959 Murcia ES current weather conditions

sailwx.info

Wind from 300 at 3 knots

Air temperature 15.6° C
Dewpoint 3.0° C

Last reported at 2015-Jan-29 19:39 UTC.
Time now 2015-Jan-29 20:22 UTC

Location: N 38°00' W 001°02'.
View on Google Maps.

See reports from other nearby stations

  
Tides and Currents Weather Stations Pressure Air Temp Water Temp Dewpoint Dewpoint Depression Visibility Wind Speed Wind Dir Waves Ship Positions
date/time (UTC)wind fromknots sea level pressurealtimeterstation pressurevisibilityair tempwater tempwave heightnotes
2015-Jan-29 19:39 300 3 15.6
2015-Jan-29 19:24 260 0 15.6
2015-Jan-29 19:09 226 15.6
2015-Jan-29 18:54 226 1 16.1
2015-Jan-29 18:39 231 1 16.1
2015-Jan-29 18:24 233 1 16.7
2015-Jan-29 18:09 283 16.7
2015-Jan-29 17:54 283 1 17.2
2015-Jan-29 17:39 271 5 17.8
2015-Jan-29 17:24 292 2 17.8
2015-Jan-29 17:09 227 0 18.9
2015-Jan-29 16:54 224 1 19.4
2015-Jan-29 16:39 274 1 20.0
2015-Jan-29 16:25 240 2 19.4
2015-Jan-29 16:09 255 3 20.0
2015-Jan-29 15:54 229 3 20.0
2015-Jan-29 15:39 228 2 20.6
2015-Jan-29 15:24 232 4 20.6
2015-Jan-29 15:09 204 3 20.6
2015-Jan-29 14:54 218 5 20.6
2015-Jan-29 14:39 227 3 20.6
2015-Jan-29 14:24 219 2 20.6
2015-Jan-29 14:09 298 3 20.0
2015-Jan-29 13:54 281 2 20.0
2015-Jan-29 13:38 252 2 20.0
2015-Jan-29 13:08 338 2 18.9
2015-Jan-29 12:53 302 2 18.3
2015-Jan-29 12:38 275 4 17.8
2015-Jan-29 12:23 194 3 17.8
2015-Jan-29 12:08 270 2 17.2
2015-Jan-29 11:53 285 3 16.7
2015-Jan-29 11:38 214 4 16.1
2015-Jan-29 11:23 224 5 15.6
2015-Jan-29 11:08 232 5 15.6
2015-Jan-29 10:52 271 5 15.0
2015-Jan-29 10:37 240 6 14.4
2015-Jan-29 10:22 275 6 14.4
2015-Jan-29 10:07 261 6 13.9
2015-Jan-29 09:52 222 4 13.3
2015-Jan-29 09:37 279 5 12.8
2015-Jan-29 09:22 260 3 11.7
2015-Jan-29 09:07 251 3 11.1
2015-Jan-29 08:52 267 3 10.6
2015-Jan-29 08:37 287 1 10.0
2015-Jan-29 08:22 290 4 10.0
2015-Jan-29 08:07 236 5 10.6
2015-Jan-29 07:52 261 5 11.1
2015-Jan-29 07:37
2015-Jan-29 07:22
2015-Jan-29 07:06
2015-Jan-29 06:51
2015-Jan-29 05:36
2015-Jan-29 05:21
2015-Jan-29 05:06
2015-Jan-29 04:51
2015-Jan-29 04:36
2015-Jan-29 04:21
2015-Jan-29 04:06
2015-Jan-29 03:51
2015-Jan-29 03:35
2015-Jan-29 03:20
2015-Jan-29 03:05
2015-Jan-29 02:50
2015-Jan-29 02:35
2015-Jan-29 02:20
2015-Jan-29 02:05
2015-Jan-29 01:50
2015-Jan-29 01:35 276 4 7.8
2015-Jan-29 01:20 274 1 7.8
2015-Jan-29 01:05 272 3 8.3
2015-Jan-29 00:50 232 5 8.3
2015-Jan-29 00:35 226 3 7.8
2015-Jan-29 00:20 229 4 7.8
2015-Jan-29 00:05 233 3 7.8
2015-Jan-28 23:50 232 3 7.8
2015-Jan-28 23:35 259 4 8.3
2015-Jan-28 23:20 269 2 7.8
2015-Jan-28 23:05 253 1 7.8
2015-Jan-28 22:50 256 2 8.3
2015-Jan-28 22:35 256 2 9.4
2015-Jan-28 22:20 256 9.4
2015-Jan-28 22:05 256 3 10.0
2015-Jan-28 21:50 235 4 9.4
2015-Jan-28 21:35 207 2 8.3
2015-Jan-28 21:20 206 1 8.9
2015-Jan-28 21:04 329 0 10.0
2015-Jan-28 20:50 329 2 11.1
2015-Jan-28 20:34 329 1 10.6
2015-Jan-28 20:19 329 0 10.0
2015-Jan-28 20:04 329 10.0
2015-Jan-28 19:49 329 10.6
2015-Jan-28 19:34 329 10.6
2015-Jan-28 19:19 329 2 11.1
2015-Jan-28 19:04 329 2 11.1
2015-Jan-28 18:49 330 0 11.7
2015-Jan-28 18:34 330 0 12.2
2015-Jan-28 18:19 330 2 12.8
2015-Jan-28 18:04 325 1 13.3
2015-Jan-28 17:49 325 2 14.4
2015-Jan-28 17:35 192 0 14.4
2015-Jan-28 17:19 180 0 15.0
2015-Jan-28 17:04 175 4 15.6
2015-Jan-28 16:49 180 6 16.1
2015-Jan-28 16:34 157 5 16.7
2015-Jan-28 16:19 163 3 18.3
2015-Jan-28 16:05 221 1 18.9
2015-Jan-28 15:50 189 2 18.3
2015-Jan-28 15:35 169 3 17.8
2015-Jan-28 15:20 184 4 17.8
2015-Jan-28 15:05 216 5 17.8
2015-Jan-28 14:50 273 4 17.8
2015-Jan-28 14:35 219 4 17.2
2015-Jan-28 14:20 329 4 17.2
2015-Jan-28 14:05 327 6 17.2
2015-Jan-28 13:50 311 6 16.7
2015-Jan-28 13:34 327 4 16.1
2015-Jan-28 13:19 329 5 16.1
2015-Jan-28 13:04 279 6 15.6
2015-Jan-28 12:49 344 6 15.0
2015-Jan-28 12:34 291 6 15.0
2015-Jan-28 12:19 325 8 15.0
2015-Jan-28 12:04 269 8 14.4
2015-Jan-28 11:49 284 8 13.9
2015-Jan-28 11:34 293 8 13.9
2015-Jan-28 11:20 264 7 13.3
2015-Jan-28 11:04 284 10 13.3
2015-Jan-28 10:49 296 8 13.3
2015-Jan-28 10:34 275 9 12.8
2015-Jan-28 10:19 284 8 12.8
2015-Jan-28 10:04 265 6 12.2
2015-Jan-28 09:49 262 6 11.7
2015-Jan-28 09:34 217 6 11.7
2015-Jan-28 09:19 255 4 11.1
2015-Jan-28 09:03 236 4 10.0
2015-Jan-28 08:33 252 4 9.4
2015-Jan-28 08:18 240 4 9.4
2015-Jan-28 08:03 248 3 8.9
2015-Jan-28 07:48
2015-Jan-28 07:33
2015-Jan-28 07:18
2015-Jan-28 07:03
2015-Jan-28 06:48
2015-Jan-28 05:33
2015-Jan-28 05:18
2015-Jan-28 05:02
2015-Jan-28 04:47
2015-Jan-28 04:32
2015-Jan-28 04:17
2015-Jan-28 04:02
2015-Jan-28 03:47
2015-Jan-28 03:32
2015-Jan-28 03:17
2015-Jan-28 03:02
2015-Jan-28 02:47
2015-Jan-28 02:32
2015-Jan-28 02:17
2015-Jan-28 02:02
2015-Jan-28 01:46
2015-Jan-28 01:31 269 4 12.2
2015-Jan-28 01:16 269 6 12.2
2015-Jan-28 01:01 233 2 12.8
2015-Jan-28 00:46 235 3 12.8
2015-Jan-28 00:31 237 4 13.3
2015-Jan-28 00:16 270 6 13.9
2015-Jan-28 00:01 282 6 13.9
2015-Jan-27 23:46 284 7 14.4
2015-Jan-27 23:31 290 7 14.4
2015-Jan-27 23:16 269 7 14.4
2015-Jan-27 23:01 273 7 15.0
2015-Jan-27 22:46 292 6 14.4
2015-Jan-27 22:31 292 6 15.0
2015-Jan-27 22:16 293 9 15.6
2015-Jan-27 22:01 300 7 15.0
2015-Jan-27 21:46 282 6 13.9
2015-Jan-27 21:31 269 6 14.4
2015-Jan-27 21:16 242 6 15.0
2015-Jan-27 21:01 269 8 15.0
2015-Jan-27 20:46 271 9 15.6
2015-Jan-27 20:31 309 8 15.0
2015-Jan-27 20:16 290 7 15.0
2015-Jan-27 20:01 294 6 14.4